Temp
63 63 62 62 63 63 63 63 63 63 63 63 64 64 63 63 63 56 48 55 60 67 66 57 56 54 53 50 50 48 35 30 38 40 40 45 42 45 46 44 43 46 47 48 51
62 62 62 62 62 63 62 63 62 63 62 62 63 63 63 62 55 50 61 67 68 69 56 53 51 53 46 46 46 42 34 38 42 40 41 44 42 43 41 40 41 44 48 49 49
61 61 61 62 62 62 63 62 62 62 62 62 62 63 62 59 50 48 65 67 68 65 56 54 54 52 45 44 43 41 34 42 41 44 46 43 40 43 41 38 42 42 45 47 45
61 61 61 61 62 62 62 62 62 61 61 62 62 62 61 53 40 52 66 66 67 61 57 53 52 45 40 40 44 38 43 45 44 44 44 41 43 39 42 42 47 46 48 46 43
61 60 60 61 61 62 62 62 61 61 61 61 61 61 55 46 45 59 64 61 59 56 51 50 47 44 40 41 42 39 40 44 44 44 42 44 40 40 41 45 46 47 48 43 42
60 60 59 60 61 61 61 61 61 61 61 61 61 61 49 40 55 58 57 56 54 52 48 48 45 47 43 40 39 40 42 42 43 43 43 40 39 40 44 45 45 46 45 41 42
59 59 59 59 60 60 60 61 61 61 61 61 61 58 48 44 55 56 57 53 53 52 48 49 48 47 43 39 42 42 37 38 39 41 40 40 36 36 44 46 46 44 45 42 41
58 58 58 59 59 60 60 61 61 60 60 61 61 52 41 56 52 56 55 53 55 55 51 51 51 46 43 42 41 37 35 30 37 40 40 39 36 42 45 43 43 43 43 41 40
58 58 58 59 59 59 60 60 60 60 61 61 52 48 40 59 51 53 53 50 51 52 52 58 49 41 40 31 29 31 25 28 35 41 38 35 34 42 43 43 41 41 41 38 37
58 58 58 59 59 59 59 59 60 58 57 59 57 44 44 45 50 52 52 52 48 47 47 45 38 29 27 28 27 29 26 32 30 36 35 31 33 41 42 41 41 40 39 36 35
58 57 58 58 58 59 55 49 44 43 46 42 43 44 46 49 52 48 51 48 46 43 32 36 30 27 32 34 35 36 32 30 32 37 33 32 33 39 41 39 39 37 37 34 35
57 57 58 58 58 58 50 43 45 47 38 47 48 46 49 49 42 46 51 41 39 33 34 32 25 34 39 38 36 33 28 26 31 36 32 31 32 40 41 39 39 38 37 34 32
57 57 58 58 58 51 45 46 51 49 38 42 47 46 46 48 42 41 46 41 36 34 32 28 34 40 37 32 31 27 26 26 27 31 32 29 29 34 36 36 38 37 37 36 35
57 57 57 57 50 46 44 51 51 49 31 36 40 44 47 46 39 48 47 42 37 34 34 31 36 36 32 31 30 26 32 32 31 24 21 28 22 30 32 34 34 35 31 32 33
57 57 57 56 44 44 48 50 49 46 22 37 39 50 46 41 39 41 47 42 33 34 32 30 32 31 29 32 32 27 32 28 27 21 15 21 14 27 30 33 32 32 31 30 33
56 56 56 50 45 46 50 48 46 32 23 32 38 37 37 38 38 40 40 43 40 35 34 31 36 34 32 31 33 32 22 22 18 15 10 18 16 25 26 32 31 31 32 31 31
56 55 52 51 43 48 47 42 30 24 37 31 31 35 33 32 33 34 32 27 24 21 25 28 29 32 34 28 31 20 16 13 13 8 17 20 13 23 29 25 29 32 32 31 29
55 54 51 51 47 46 42 34 23 35 33 36 34 32 30 32 32 31 27 22 28 23 17 22 21 27 32 26 23 14 18 19 14 11 16 19 13 27 27 23 27 28 27 30 30
54 44 44 47 48 45 36 21 30 34 38 34 34 28 27 32 30 29 25 21 25 27 26 18 25 28 29 25 27 17 14 21 12 7 10 14 19 30 28 23 24 24 24 28 29
42 41 42 49 48 41 30 31 33 42 38 36 31 32 25 28 26 24 25 27 30 30 24 27 19 26 27 28 25 21 24 15 12 11 7 10 11 26 26 33 25 24 25 27 26
41 36 43 47 46 34 23 27 36 45 44 37 33 28 29 27 28 25 27 33 35 31 31 20 22 18 24 20 17 18 15 10 13 15 12 6 18 26 33 31 31 29 28 27 26
39 31 42 44 30 28 24 31 43 42 43 39 37 36 31 31 26 25 27 34 36 32 28 28 16 12 16 15 16 14 17 14 18 13 8 10 16 28 28 27 28 31 28 26 26
38 32 41 41 24 25 29 35 40 38 39 37 36 37 36 30 23 28 29 35 35 32 28 30 18 10 15 16 17 14 14 15 11 7 9 13 22 29 23 25 27 27 26 24 25
36 29 33 34 31 28 29 33 35 41 40 39 38 37 31 30 33 25 27 31 33 34 40 35 19 21 25 20 15 11 14 20 22 10 15 25 29 34 34 30 27 28 27 25 26
38 32 32 26 28 30 32 32 33 31 37 39 33 35 31 27 29 26 27 24 28 36 30 28 20 19 20 22 23 21 18 20 21 25 20 25 27 34 37 39 34 36 31 28 27
36 33 29 26 30 30 32 31 32 32 34 32 33 34 36 33 31 27 28 26 28 23 21 19 17 16 15 23 24 23 24 21 24 26 25 26 25 39 43 32 34 31 30 31 32
43 41 36 34 27 27 29 32 33 38 38 41 36 36 29 34 42 40 37 35 33 27 26 24 22 22 23 15 23 20 25 24 25 21 27 21 31 39 36 36 36 37 32 33 34
MSLP
1019.61 1019.82 1019.90 1020.01 1020.05 1020.11 1020.29 1020.41 1020.53 1020.44 1020.37 1020.34 1020.37 1020.38 1020.31 1020.14 1019.78 1019.96 1020.65 1020.77 1020.13 1019.47 1018.95 1018.62 1018.48 1018.42 1018.63 1019.66 1020.14 1020.45 1022.35 1024.30 1024.32 1024.61 1024.92 1025.02 1025.35 1025.69 1025.67 1025.93 1026.02 1026.13 1026.79 1027.47 1028.09
1019.85 1019.98 1020.07 1020.14 1020.21 1020.25 1020.41 1020.56 1020.70 1020.63 1020.59 1020.57 1020.59 1020.59 1020.54 1020.47 1020.51 1020.80 1021.00 1020.43 1019.90 1019.37 1019.30 1019.18 1019.04 1018.90 1019.76 1020.71 1021.07 1021.72 1023.55 1024.39 1024.52 1024.53 1024.93 1025.18 1025.42 1025.80 1026.08 1026.23 1026.38 1026.82 1027.31 1027.74 1028.14
1020.11 1020.19 1020.25 1020.26 1020.29 1020.40 1020.46 1020.65 1020.77 1020.83 1020.83 1020.77 1020.77 1020.76 1020.73 1020.59 1020.84 1021.54 1020.90 1020.41 1019.90 1019.54 1019.54 1019.44 1019.21 1019.35 1020.78 1021.52 1022.38 1022.98 1024.17 1024.78 1025.13 1025.08 1025.08 1025.54 1025.91 1026.03 1026.21 1026.43 1026.21 1026.69 1027.40 1027.87 1028.41
1020.22 1020.33 1020.36 1020.42 1020.47 1020.52 1020.60 1020.71 1020.85 1020.92 1020.95 1020.95 1020.92 1020.90 1020.75 1020.73 1021.97 1021.80 1021.04 1020.63 1020.06 1019.67 1019.45 1019.50 1019.52 1020.43 1021.88 1022.57 1023.02 1023.95 1024.76 1024.86 1025.38 1025.55 1025.64 1026.00 1026.16 1026.32 1026.43 1026.07 1026.03 1026.63 1027.11 1028.01 1028.72
1020.20 1020.34 1020.42 1020.44 1020.53 1020.54 1020.71 1020.86 1020.96 1020.99 1021.04 1021.03 1021.05 1020.98 1020.90 1021.44 1022.17 1021.75 1021.34 1020.95 1020.38 1020.09 1020.37 1020.25 1020.45 1021.25 1022.55 1023.14 1023.62 1024.28 1025.01 1025.28 1025.57 1025.78 1025.90 1026.06 1026.25 1026.33 1026.14 1025.97 1026.18 1026.53 1027.16 1027.95 1028.58
1020.23 1020.36 1020.49 1020.55 1020.64 1020.74 1020.87 1021.02 1021.08 1021.13 1021.17 1021.12 1021.08 1021.03 1021.24 1022.04 1022.15 1021.87 1021.64 1021.25 1021.10 1020.88 1021.10 1021.00 1021.29 1021.39 1022.72 1023.78 1024.25 1024.89 1025.16 1025.52 1025.66 1025.87 1026.04 1026.14 1026.20 1026.24 1025.45 1025.45 1025.97 1026.55 1027.20 1027.96 1028.41
1020.36 1020.35 1020.43 1020.56 1020.77 1020.88 1020.97 1021.10 1021.24 1021.28 1021.27 1021.21 1021.17 1021.12 1021.64 1022.56 1022.26 1022.02 1021.83 1021.92 1021.73 1021.51 1021.64 1021.77 1021.67 1021.87 1023.05 1024.31 1024.92 1025.17 1025.52 1025.64 1025.76 1025.88 1026.21 1026.24 1026.16 1025.59 1025.14 1025.33 1025.73 1026.20 1026.88 1027.82 1028.35
1020.33 1020.33 1020.40 1020.55 1020.78 1020.91 1021.08 1021.21 1021.42 1021.50 1021.42 1021.33 1021.29 1021.36 1022.25 1022.32 1022.39 1022.22 1022.13 1022.15 1021.98 1021.86 1021.98 1022.01 1021.90 1022.61 1023.84 1024.72 1025.27 1025.60 1025.81 1026.04 1025.75 1025.93 1026.30 1026.32 1025.48 1024.57 1024.82 1025.46 1025.84 1026.23 1026.80 1027.72 1028.50
1020.28 1020.32 1020.38 1020.56 1020.76 1020.95 1021.16 1021.35 1021.60 1021.62 1021.55 1021.50 1021.58 1021.70 1022.56 1022.35 1022.48 1022.49 1022.32 1022.53 1022.49 1022.37 1022.25 1022.12 1022.49 1024.12 1024.82 1025.36 1026.32 1026.63 1026.32 1026.28 1025.93 1025.99 1026.42 1026.73 1025.75 1024.65 1024.74 1025.27 1025.83 1026.21 1026.85 1027.75 1028.58
1020.27 1020.37 1020.41 1020.52 1020.76 1021.04 1021.27 1021.56 1021.72 1021.79 1021.77 1021.58 1021.76 1022.46 1023.13 1022.65 1022.64 1022.70 1022.64 1022.64 1022.82 1022.87 1022.85 1023.18 1024.11 1025.22 1025.99 1025.99 1026.49 1026.50 1026.52 1026.27 1026.19 1026.39 1026.72 1027.02 1025.48 1024.89 1024.86 1025.18 1025.43 1025.96 1026.85 1027.73 1028.40
1020.27 1020.41 1020.38 1020.53 1020.85 1021.12 1021.53 1021.94 1022.45 1022.41 1022.10 1021.87 1022.05 1022.38 1022.72 1022.89 1022.79 1023.02 1022.96 1022.95 1023.05 1023.39 1024.09 1024.67 1025.27 1025.81 1025.84 1025.95 1025.91 1026.04 1026.31 1026.47 1026.63 1026.81 1027.11 1026.94 1026.18 1024.27 1024.44 1024.77 1025.05 1025.57 1026.37 1027.37 1028.19
1020.35 1020.47 1020.46 1020.57 1020.95 1021.35 1021.86 1022.00 1021.68 1021.71 1022.02 1022.06 1022.17 1022.52 1022.78 1022.91 1023.29 1023.40 1023.30 1023.53 1023.58 1024.23 1024.70 1025.33 1025.66 1025.84 1025.87 1026.10 1026.33 1026.59 1027.10 1027.40 1027.56 1027.65 1028.02 1027.31 1026.22 1024.33 1023.59 1023.37 1023.75 1024.59 1025.48 1026.56 1027.99
1020.31 1020.50 1020.63 1020.73 1021.14 1021.80 1021.97 1021.75 1021.41 1021.35 1021.89 1022.38 1022.32 1022.59 1022.84 1023.16 1023.38 1023.72 1023.86 1023.84 1024.03 1024.60 1025.02 1025.43 1025.77 1025.85 1026.13 1026.83 1027.34 1027.77 1027.99 1028.28 1028.74 1028.81 1028.67 1028.46 1026.20 1024.30 1023.12 1023.10 1023.25 1023.89 1024.67 1025.76 1026.80
1020.17 1020.47 1020.75 1020.93 1021.79 1021.92 1021.91 1021.29 1021.38 1021.45 1022.34 1022.73 1022.65 1022.66 1022.84 1023.10 1023.91 1024.05 1024.13 1024.35 1024.46 1024.83 1025.40 1025.76 1025.88 1026.16 1026.78 1027.46 1028.03 1028.97 1028.99 1029.31 1029.82 1030.33 1030.51 1029.76 1027.94 1024.94 1023.62 1023.44 1023.58 1024.16 1024.85 1025.50 1026.55
1020.17 1020.39 1020.68 1020.99 1021.58 1021.89 1021.65 1021.46 1021.41 1021.72 1022.70 1022.93 1022.81 1022.89 1023.09 1023.77 1024.54 1024.75 1024.61 1024.49 1024.99 1025.30 1025.86 1026.11 1026.24 1026.75 1027.50 1028.02 1028.61 1029.75 1030.17 1030.78 1031.28 1031.85 1032.37 1031.21 1030.49 1025.02 1024.30 1023.61 1023.42 1023.93 1024.80 1025.47 1026.08
1020.26 1020.50 1020.83 1021.25 1021.77 1021.56 1021.48 1021.63 1021.87 1022.53 1022.30 1022.75 1023.00 1023.16 1023.72 1024.14 1024.80 1025.18 1025.23 1025.15 1025.68 1025.99 1026.29 1026.62 1026.61 1027.03 1027.95 1029.04 1029.55 1030.57 1031.57 1032.32 1032.95 1033.39 1033.38 1031.11 1030.67 1026.51 1024.75 1023.11 1023.25 1023.69 1024.50 1025.26 1026.05
1020.40 1020.64 1021.05 1021.21 1021.52 1021.45 1021.65 1022.24 1022.76 1022.23 1021.75 1022.74 1023.08 1023.46 1023.88 1024.56 1025.24 1025.55 1026.05 1026.39 1026.70 1027.29 1027.48 1027.60 1027.59 1027.81 1028.33 1029.85 1030.88 1031.61 1032.77 1033.83 1034.33 1034.36 1032.85 1031.74 1031.34 1026.51 1023.90 1023.25 1023.70 1023.81 1024.31 1025.03 1025.73
1020.52 1020.81 1020.99 1021.19 1021.26 1021.46 1022.20 1022.79 1022.50 1020.64 1021.08 1021.71 1022.46 1023.48 1023.92 1024.42 1025.27 1025.90 1026.54 1027.00 1026.95 1027.18 1027.91 1028.11 1028.65 1028.61 1028.88 1029.83 1030.87 1032.56 1032.98 1033.15 1033.58 1034.15 1032.78 1032.06 1029.68 1024.98 1023.26 1023.11 1023.62 1023.68 1023.86 1024.67 1025.39
1020.35 1021.15 1021.31 1021.14 1021.37 1021.71 1022.48 1022.95 1020.67 1019.90 1019.80 1021.02 1022.53 1023.28 1023.94 1024.15 1024.80 1025.82 1026.47 1026.57 1025.74 1025.85 1026.43 1027.55 1028.59 1029.35 1029.83 1030.48 1031.28 1033.22 1033.32 1032.62 1033.07 1033.97 1033.18 1030.17 1027.66 1024.32 1022.79 1023.14 1023.32 1023.77 1024.32 1024.50 1024.96
1020.60 1021.05 1021.02 1020.67 1021.21 1022.20 1022.95 1021.62 1019.96 1018.77 1019.22 1020.13 1021.00 1021.54 1022.91 1023.91 1024.75 1025.42 1025.55 1024.43 1024.40 1024.32 1024.89 1026.43 1028.55 1030.13 1030.65 1031.02 1031.90 1032.21 1032.62 1033.01 1033.50 1033.78 1032.66 1030.17 1028.00 1024.32 1022.72 1022.49 1022.96 1023.56 1023.62 1023.76 1024.30
1020.82 1021.25 1020.89 1020.64 1021.15 1022.52 1022.45 1021.25 1019.51 1018.32 1018.19 1019.16 1019.72 1020.87 1021.90 1022.85 1023.72 1024.47 1024.04 1023.16 1023.01 1024.19 1024.86 1026.18 1027.44 1030.95 1031.27 1031.33 1031.40 1032.69 1032.84 1033.07 1032.82 1032.08 1031.33 1029.99 1025.71 1022.31 1021.74 1021.58 1021.95 1022.14 1022.61 1022.98 1023.58
1020.74 1021.47 1021.20 1021.12 1021.89 1021.78 1021.40 1020.09 1018.59 1017.92 1017.89 1018.33 1018.95 1019.74 1020.74 1021.60 1022.75 1023.29 1022.85 1021.90 1021.82 1022.77 1024.72 1025.50 1027.64 1029.84 1030.33 1030.92 1031.38 1031.55 1031.38 1031.37 1031.63 1031.26 1030.46 1028.50 1024.08 1021.03 1020.96 1020.90 1021.19 1021.26 1021.74 1022.09 1022.61
1020.26 1021.18 1021.46 1021.34 1021.47 1021.50 1020.59 1019.37 1018.36 1017.87 1017.55 1018.00 1018.56 1018.92 1019.58 1020.73 1021.89 1021.65 1021.37 1021.00 1021.38 1021.93 1022.38 1024.02 1026.33 1028.66 1030.05 1031.10 1031.19 1030.91 1030.16 1029.72 1029.57 1029.12 1027.73 1026.81 1022.19 1020.47 1020.40 1020.49 1020.59 1021.28 1021.28 1021.70 1022.40
1019.55 1020.84 1021.55 1021.54 1020.65 1020.32 1020.13 1018.95 1018.09 1017.23 1017.32 1017.61 1017.89 1018.60 1019.42 1020.02 1020.06 1020.35 1021.00 1021.07 1021.35 1021.58 1021.92 1022.54 1024.00 1024.69 1025.44 1026.19 1027.05 1028.90 1028.22 1027.78 1027.61 1027.48 1025.45 1021.77 1020.75 1019.80 1019.79 1019.69 1020.08 1020.49 1020.38 1020.98 1021.65
1017.55 1017.94 1018.32 1019.75 1019.69 1019.51 1018.93 1017.66 1017.07 1017.18 1017.15 1017.22 1017.63 1017.73 1018.43 1019.19 1019.27 1019.77 1020.43 1021.33 1021.68 1021.64 1022.18 1022.89 1023.50 1023.83 1023.93 1024.18 1024.84 1024.96 1025.13 1025.57 1025.43 1024.16 1023.39 1020.25 1019.41 1018.18 1018.11 1018.08 1018.76 1018.68 1019.28 1020.21 1020.70
1015.15 1016.20 1017.53 1017.46 1017.56 1018.32 1018.00 1016.22 1016.46 1016.54 1016.43 1016.35 1016.39 1016.80 1017.17 1017.08 1017.39 1017.91 1018.97 1020.22 1020.50 1021.90 1022.46 1022.89 1022.70 1023.20 1023.53 1023.43 1023.63 1023.68 1022.66 1022.78 1022.90 1022.32 1020.92 1020.31 1017.19 1016.62 1015.43 1017.29 1017.27 1017.32 1018.36 1018.96 1018.97
1013.58 1013.95 1014.88 1015.46 1016.51 1017.11 1015.49 1014.88 1014.65 1015.58 1015.30 1015.20 1015.48 1016.08 1016.13 1015.33 1015.88 1016.81 1017.97 1018.86 1019.24 1020.11 1021.32 1022.19 1022.34 1022.54 1021.61 1022.28 1022.86 1022.18 1018.72 1020.52 1020.50 1019.64 1019.10 1018.63 1014.71 1014.18 1015.15 1015.76 1015.96 1015.75 1016.79 1017.25 1017.26
Wind_Speed
8 6 6 6 5 6 6 6 5 3 4 5 6 7 10 14 8 6 7 6 9 14 13 5 4 3 4 5 6 3 7 3 5 7 6 4 4 2 1 5 0 2 4 8 8
6 6 4 5 5 5 6 6 5 4 4 5 5 6 9 10 3 9 8 12 12 13 6 7 5 5 6 5 5 7 6 4 1 3 5 4 3 5 3 2 2 5 5 7 6
4 4 4 5 6 6 7 6 5 3 3 4 6 7 8 6 3 4 13 15 12 12 3 2 3 4 7 5 6 4 5 4 2 4 5 5 3 2 5 4 6 9 8 7 7
4 4 4 5 6 6 7 6 5 4 3 5 6 7 8 1 3 3 13 15 13 10 2 3 5 6 6 5 4 8 6 5 4 3 4 5 2 1 6 5 7 7 9 8 9
4 4 4 6 6 8 6 7 6 4 3 4 5 7 4 6 3 4 11 12 6 4 6 3 6 4 6 5 3 6 3 5 5 5 4 3 3 4 7 9 6 4 7 9 8
3 4 4 5 6 6 7 6 6 5 4 3 4 4 3 5 4 3 6 7 7 5 7 7 3 4 8 5 5 3 6 5 3 2 1 1 2 3 5 6 9 8 8 8 10
1 3 5 6 6 7 7 6 6 5 4 3 3 2 6 3 2 4 5 5 5 3 4 4 2 6 4 6 2 4 4 3 1 1 1 1 3 8 5 4 7 9 8 8 8
2 4 5 6 7 7 7 6 5 4 4 3 3 3 3 2 1 2 3 5 7 5 3 4 6 9 5 5 5 4 5 3 1 2 2 3 8 3 6 7 7 8 8 8 8
3 3 3 7 9 9 7 6 5 4 3 2 3 3 3 4 2 0 3 3 4 4 5 2 5 5 4 6 6 6 2 1 5 5 2 2 8 4 2 8 8 8 8 9 7
5 3 2 8 10 10 8 7 5 4 1 1 1 4 3 3 2 2 2 2 3 3 5 8 6 5 5 5 5 6 3 2 3 2 2 1 18 13 7 7 10 10 8 9 9
6 5 4 9 11 11 8 5 4 5 2 3 2 4 3 2 2 3 2 2 2 6 3 5 6 4 6 4 3 5 4 3 1 3 2 7 15 21 9 9 12 10 10 10 11
4 6 5 11 12 11 4 2 3 2 3 2 4 5 3 2 3 1 2 3 3 3 2 6 2 1 8 5 5 4 3 2 1 1 0 7 15 20 14 9 9 13 12 12 8
1 7 7 10 11 4 2 4 1 2 4 1 2 3 3 3 1 4 3 1 3 4 3 5 1 5 4 4 5 2 5 3 2 4 3 7 10 6 2 3 3 4 7 12 18
3 9 8 12 6 2 3 2 3 3 5 2 2 1 3 3 3 3 1 0 2 6 6 2 2 4 4 2 5 1 0 3 4 5 3 4 9 7 3 8 5 6 7 12 12
5 10 12 5 4 4 1 3 2 5 3 4 3 1 3 4 4 4 3 4 4 4 7 3 6 4 3 2 4 3 5 4 3 4 5 1 3 12 4 7 9 10 9 10 12
6 8 10 1 2 2 3 4 4 5 7 4 3 4 5 3 2 2 4 6 2 3 3 2 1 3 3 4 4 7 7 7 5 4 2 4 6 8 5 8 1 3 9 10 10
6 2 7 3 3 3 4 4 5 4 2 5 5 5 3 4 3 3 4 2 5 6 5 2 1 2 5 7 5 7 6 3 5 3 7 2 2 13 9 6 5 7 10 10 9
6 2 2 2 2 5 4 5 3 4 6 4 5 5 7 8 5 5 6 3 7 4 4 7 5 7 3 4 7 5 7 7 9 4 4 3 9 11 7 5 7 5 5 9 11
7 2 2 3 5 4 6 3 9 7 7 10 4 4 5 5 6 5 8 6 10 15 10 6 1 2 4 2 3 6 3 4 7 0 4 5 9 13 3 6 3 6 4 10 12
3 3 3 6 6 5 5 6 6 4 8 4 9 6 8 7 7 8 9 6 6 13 3 6 5 2 2 2 3 6 2 4 3 2 6 6 7 9 5 10 6 8 11 10 8
3 2 1 5 5 4 5 9 6 5 6 8 9 6 6 9 9 7 7 4 7 6 4 5 5 1 2 9 11 3 2 2 2 5 7 2 9 10 12 8 9 13 10 10 11
3 2 1 1 3 3 5 9 6 5 3 4 5 6 10 10 9 8 13 8 10 11 12 6 6 5 8 4 3 4 8 7 6 7 4 3 11 4 8 6 5 8 10 7 8
4 3 2 3 6 5 4 5 5 6 7 8 9 7 5 10 1 10 9 3 11 12 15 13 3 3 6 4 3 6 7 5 4 3 8 5 7 2 4 6 6 8 7 7 7
4 4 1 1 1 4 6 7 8 5 7 5 5 4 4 7 7 5 8 4 6 6 7 8 5 10 14 9 8 7 9 14 9 5 6 20 15 11 10 9 6 9 9 7 9
5 6 8 8 10 13 8 6 13 8 6 8 4 14 9 7 4 7 5 2 3 5 3 7 8 5 4 4 5 7 8 18 20 19 13 7 21 15 21 18 13 17 8 8 10
8 7 1 4 2 19 17 12 16 5 11 8 14 12 16 20 13 11 9 5 7 2 5 2 5 4 5 7 9 10 15 15 21 18 26 14 28 17 24 5 10 13 10 11 15
4 3 7 10 6 10 10 17 16 13 7 13 14 13 11 23 16 2 6 5 6 12 11 8 6 5 20 4 6 13 26 21 15 10 20 20 32 28 20 15 19 23 7 16 18
Wind_Direction
111 117 119 123 142 145 140 134 131 123 89 56 60 44 27 16 32 43 42 335 337 329 335 300 27 355 48 58 36 91 65 123 149 158 163 191 134 354 87 121 191 158 118 135 139
100 123 128 139 156 152 146 144 140 116 76 43 26 28 19 0 45 53 343 346 340 343 356 22 7 13 53 27 20 67 85 147 359 107 148 134 128 154 132 111 192 87 81 107 108
118 130 157 162 166 168 160 154 142 140 75 47 28 17 2 351 89 333 336 343 338 349 255 286 300 60 61 29 2 37 117 144 44 96 91 125 118 153 137 225 207 167 161 137 113
156 175 171 171 176 167 165 154 150 147 96 52 31 10 336 9 136 300 338 342 334 334 32 359 31 55 65 62 14 93 52 98 152 76 103 138 134 300 192 228 146 165 167 135 141
167 174 181 183 180 170 162 156 154 145 110 65 34 5 21 49 36 315 353 348 351 14 36 34 54 101 96 90 53 74 124 78 111 105 122 136 209 228 238 230 206 138 159 142 138
151 167 186 190 185 170 163 162 160 148 127 89 39 354 43 74 267 18 11 1 10 32 15 30 96 106 91 69 73 76 88 116 118 139 102 223 210 45 250 209 219 198 173 163 151
101 185 185 184 186 178 167 168 162 153 145 107 53 38 56 123 261 53 29 7 0 19 62 16 298 71 113 95 128 112 75 54 119 141 78 33 242 229 197 143 171 190 179 162 157
83 143 157 176 180 182 165 166 152 150 148 119 51 66 97 319 282 46 3 5 13 16 54 16 51 89 63 120 46 60 52 61 333 123 25 54 269 251 197 186 202 189 177 161 167
114 139 159 174 172 169 159 145 138 151 137 103 44 65 125 322 115 236 38 60 357 356 7 2 57 84 45 83 40 12 177 215 313 195 84 76 266 259 227 185 204 207 200 169 152
124 133 155 166 162 159 150 132 142 94 357 259 336 59 339 207 132 53 16 55 40 345 21 37 48 77 33 73 203 186 174 205 232 210 179 250 268 264 247 212 217 210 209 175 174
128 134 115 149 153 152 126 91 48 14 16 183 200 101 111 112 88 39 8 32 32 47 72 2 70 176 191 169 105 109 119 161 34 358 257 223 269 278 263 232 234 217 209 185 182
155 142 132 149 155 146 94 153 196 170 147 231 80 72 101 177 85 315 42 81 61 110 94 28 170 178 103 86 99 89 99 254 5 99 314 314 278 274 269 247 214 215 205 180 154
129 144 143 129 131 84 126 240 108 116 98 141 153 140 168 145 90 203 129 151 106 114 135 142 170 139 97 75 95 90 151 175 173 325 257 321 284 297 266 272 256 237 194 177 173
169 146 141 125 81 181 253 293 118 106 75 184 187 64 85 126 65 54 342 141 45 160 147 129 136 124 94 137 117 151 19 117 87 65 241 20 283 296 265 276 245 236 190 172 170
131 158 158 115 147 156 216 135 117 57 18 143 143 320 107 121 99 11 334 21 149 150 97 229 153 127 119 206 126 148 76 79 72 87 43 330 71 271 349 277 240 215 202 188 179
118 167 152 47 72 243 114 78 57 54 261 158 123 156 120 120 76 68 34 46 35 90 46 91 97 131 107 52 54 130 64 47 51 84 360 223 141 280 221 213 168 199 203 190 183
156 152 145 127 171 132 89 57 59 153 75 175 171 167 135 150 132 129 142 160 155 106 204 42 199 65 122 84 16 67 63 341 343 5 227 120 68 249 268 244 213 210 206 196 187
193 182 238 152 118 113 69 61 161 211 186 134 122 109 176 157 200 164 134 213 219 127 115 158 278 168 162 155 170 181 154 171 217 206 254 34 232 248 223 254 249 244 218 190 197
154 69 116 232 136 75 79 114 206 205 155 139 92 147 225 203 144 142 198 212 206 178 174 135 198 106 48 114 116 220 181 190 98 61 46 237 289 294 269 266 284 241 196 208 203
113 144 215 161 129 70 82 241 232 186 124 140 178 156 176 188 155 176 183 203 233 186 130 194 95 350 143 113 27 150 168 67 355 227 262 285 277 244 289 237 199 240 224 220 207
84 119 306 125 88 72 187 227 257 221 149 161 196 150 178 179 177 200 211 240 198 162 111 127 104 149 121 207 177 133 233 20 133 161 191 256 257 218 226 216 206 223 220 216 208
148 176 301 63 120 199 187 192 212 208 175 187 144 173 175 172 187 209 207 229 156 147 165 191 117 168 201 248 164 180 199 162 153 241 226 156 264 244 239 259 236 240 220 227 209
177 139 322 104 191 213 264 255 227 197 192 183 203 198 182 173 200 198 194 220 159 162 167 177 205 82 347 355 355 211 205 179 117 86 205 171 251 279 299 292 272 262 238 226 223
137 169 231 204 142 198 183 222 226 210 214 163 198 132 138 205 234 225 209 215 197 202 191 146 162 178 215 196 134 187 201 200 181 171 207 234 275 250 287 264 270 249 255 235 214
187 205 181 186 220 212 189 207 211 210 217 196 239 205 176 218 212 207 194 13 343 222 160 161 219 177 240 153 171 187 176 193 209 220 209 213 235 238 240 251 233 240 223 220 234
174 162 127 163 193 195 211 216 221 204 178 213 228 194 208 228 203 213 158 175 198 106 151 219 248 127 264 192 200 237 223 194 207 221 241 250 263 250 258 224 259 233 214 224 231
173 160 143 185 164 175 206 216 221 211 245 235 212 225 215 226 228 184 166 180 160 166 178 168 177 153 252 182 149 257 228 199 207 200 212 225 241 254 266 241 234 248 219 224 232